Wind_Speed
11 6 8 10 8 8 7 7 7 5 5 6 5 4 6 6 4 6 6 6 7 6 7 8 8 8 6 9 12 19 24 23 23 23 24 26 28 30 32 31 32 30 27 25 22 19 18 17 17 16 16 15 13 12 12 12 12 11 11 10 9 9 9 9 9 8 7 6 6 5 5 5 5 6 7 7 7 7 8 8 9 9 10 11 12 14
10 8 10 9 6 7 7 7 8 7 7 7 5 4 6 5 6 8 6 7 7 6 7 7 7 6 4 10 14 17 17 17 22 24 24 26 26 28 31 32 31 28 25 24 23 21 19 18 18 16 16 15 13 12 11 11 12 12 11 10 9 7 7 6 6 5 5 5 5 6 6 7 7 7 8 9 8 8 7 7 7 7 8 9 11 12
9 10 7 7 6 6 7 7 8 8 8 7 5 5 5 4 5 7 5 6 6 6 6 6 7 3 1 9 14 16 15 14 20 25 27 30 29 29 32 33 31 28 26 25 24 22 20 18 18 16 15 14 13 12 11 11 11 11 10 9 8 7 6 5 4 5 6 6 7 8 9 8 7 7 8 8 7 7 7 7 7 8 10 11 12 13
7 6 6 7 7 8 7 8 9 8 8 7 5 5 5 4 3 3 4 6 7 7 6 6 7 2 5 8 8 10 16 15 16 20 23 27 30 30 31 32 32 31 29 27 26 25 23 20 18 17 16 14 13 13 11 11 10 10 9 8 7 6 5 5 5 6 7 7 7 8 8 7 6 5 5 4 5 6 7 9 9 10 12 14 15 15
5 5 11 10 8 10 9 9 10 8 7 8 8 6 6 7 5 3 4 4 6 9 5 7 6 4 3 8 6 7 14 16 18 22 22 23 27 28 29 30 31 32 30 28 28 28 25 21 19 17 15 14 13 12 11 11 10 9 9 7 6 5 5 6 7 7 6 6 6 7 7 7 6 4 4 5 5 6 8 9 10 11 12 13 15 17
6 8 16 13 10 12 11 9 11 10 6 8 10 10 10 9 5 4 3 1 4 8 5 7 6 3 4 4 8 7 10 11 14 20 20 24 27 27 29 29 29 30 30 29 29 29 25 21 18 15 14 13 13 12 10 9 9 9 9 8 7 7 7 7 9 9 8 6 7 8 8 8 7 6 6 7 8 8 8 10 10 10 11 12 14 16
5 9 15 13 12 13 11 10 11 11 7 8 7 9 12 9 5 4 3 2 4 6 5 6 6 3 3 1 6 10 12 11 11 13 14 20 23 24 27 28 29 30 30 30 29 27 25 22 19 16 13 12 12 12 10 9 9 9 9 9 9 8 8 8 9 10 9 8 8 9 9 8 8 8 7 8 9 10 10 11 11 11 12 12 12 14
8 11 13 14 13 11 11 11 11 12 9 8 5 8 10 9 7 6 4 3 4 3 1 4 7 5 2 3 5 11 16 13 11 12 13 17 20 23 26 27 29 31 31 31 30 27 26 24 21 17 13 12 12 13 12 12 12 11 11 10 9 9 9 9 10 10 10 10 10 10 10 9 9 9 9 10 11 12 12 12 13 13 13 13 13 14
7 11 11 14 14 10 11 10 10 13 10 7 5 6 7 7 6 6 5 5 3 1 2 4 7 5 2 4 5 10 15 14 13 13 13 17 22 24 26 27 28 30 31 31 30 29 27 24 21 19 15 13 13 13 13 13 12 11 11 10 9 9 10 10 10 11 11 11 10 10 11 10 10 11 11 12 13 14 14 15 15 14 14 15 15 15
6 13 12 11 12 10 8 7 9 12 9 4 4 4 4 5 5 5 6 5 3 3 5 8 8 5 1 4 5 8 11 14 12 11 12 17 23 25 26 27 26 28 30 30 29 28 27 25 23 22 18 15 14 13 12 12 10 8 9 10 10 10 10 10 11 12 11 11 10 10 11 11 13 13 13 14 14 15 16 16 16 15 15 15 15 15
6 15 14 9 11 10 7 6 9 12 7 1 3 5 2 2 2 4 4 4 3 3 7 11 10 9 4 6 7 7 10 15 12 10 12 16 21 24 26 28 27 28 29 29 28 25 26 25 24 23 18 14 13 11 9 10 11 11 10 13 13 12 12 12 13 14 13 12 11 12 12 13 15 16 16 15 15 15 15 16 15 14 14 14 15 15
8 12 11 10 13 12 8 8 10 11 8 5 4 4 2 1 0 2 3 3 4 6 7 11 12 12 8 7 7 6 9 18 16 13 15 16 20 22 24 27 27 28 28 27 27 23 23 22 20 21 18 13 13 11 9 10 12 11 11 12 12 12 14 14 15 15 15 14 13 13 13 15 17 18 17 17 16 15 14 15 15 12 12 13 15 16
9 8 8 10 13 14 11 8 8 9 9 9 5 5 5 2 2 3 4 3 4 6 6 11 11 7 5 4 4 9 12 14 14 16 19 22 24 24 25 27 27 28 27 25 24 22 21 19 17 17 14 11 11 10 9 10 10 9 8 8 8 8 10 11 13 15 17 18 17 17 17 18 19 18 16 16 15 13 13 14 12 10 10 11 13 14
6 7 9 10 10 14 14 8 7 9 10 12 9 7 6 5 5 5 5 4 5 5 4 9 10 3 1 2 1 11 13 10 13 18 23 27 28 27 27 28 27 27 27 25 24 22 21 19 18 15 10 7 7 6 7 8 7 5 3 2 3 4 4 4 5 8 12 14 16 17 18 17 16 15 13 13 12 11 11 10 8 8 9 9 11 11
8 7 10 11 8 12 16 12 10 7 8 11 8 6 5 5 6 5 5 4 5 3 0 3 4 2 1 1 2 10 13 15 18 20 23 27 28 29 29 29 28 26 26 25 23 21 20 17 16 15 11 8 7 9 10 9 7 5 4 4 5 6 7 8 7 5 2 1 5 9 12 13 12 12 12 11 10 9 9 8 8 8 8 8 9 9
10 8 7 10 9 11 14 12 11 7 4 7 4 6 5 6 6 3 4 5 5 4 3 2 1 1 1 3 7 14 15 16 19 20 22 24 27 30 29 28 28 26 25 24 22 20 18 16 14 14 13 11 10 11 10 8 7 6 7 9 12 15 16 15 15 13 12 9 7 3 2 4 5 6 8 8 8 7 7 7 8 8 7 7 9 9
8 6 5 9 10 12 15 12 12 10 6 4 6 6 6 6 6 3 3 2 4 6 1 1 2 2 2 2 6 13 13 12 14 17 19 21 25 27 26 26 27 27 26 24 23 22 19 18 17 15 15 14 12 10 8 7 8 8 10 12 15 16 17 16 16 15 14 12 11 9 7 4 3 1 1 3 5 6 7 7 8 7 7 8 9 9
6 4 6 10 11 14 20 17 12 13 9 5 7 8 4 4 3 3 3 1 3 5 1 2 4 5 5 2 4 11 13 10 10 13 15 18 21 23 23 25 26 27 27 25 24 22 20 18 16 14 14 14 12 10 10 10 11 12 12 12 14 16 17 16 16 15 13 11 10 9 7 6 5 4 3 3 3 4 6 7 8 8 8 9 9 10
2 2 6 10 10 10 15 15 10 11 12 7 5 6 6 5 3 2 3 3 3 4 1 2 5 5 3 3 8 13 14 13 11 11 13 15 17 21 22 23 25 26 26 25 23 21 19 16 15 16 16 14 12 12 13 14 13 14 15 13 14 17 17 17 15 14 12 10 9 8 6 6 6 6 5 4 4 3 4 6 7 7 9 10 11 11
1 1 4 8 11 9 8 8 7 9 11 6 4 5 5 5 4 4 4 3 5 4 3 5 6 4 1 5 10 13 14 16 14 11 12 14 18 22 23 23 24 25 24 23 22 20 19 19 18 18 17 15 14 14 15 14 14 15 16 15 15 17 18 17 14 12 10 9 8 7 6 7 8 8 8 7 6 5 4 4 5 6 7 9 11 13
1 2 3 5 7 10 6 6 10 10 9 5 4 5 6 3 2 3 2 2 5 5 4 5 4 3 1 5 10 12 12 14 14 11 11 15 19 22 24 25 24 23 22 21 21 21 22 21 19 17 16 15 14 15 14 14 15 15 14 15 16 16 15 14 12 10 9 9 8 7 7 8 9 10 10 9 8 7 7 6 5 5 5 7 9 11
1 2 4 4 3 8 7 8 11 10 7 6 5 5 6 5 4 3 2 1 4 5 5 5 5 2 1 3 8 11 10 11 14 15 14 16 20 22 24 26 25 23 24 23 22 23 22 20 17 17 16 14 13 15 16 16 16 15 14 14 14 14 13 12 10 9 8 7 8 9 10 11 11 12 12 11 10 9 9 8 7 6 6 6 6 8
3 2 3 3 3 6 8 8 10 10 8 6 4 4 4 4 5 6 4 3 3 3 2 3 3 2 1 1 8 11 11 14 19 20 19 18 21 23 25 26 25 25 25 22 22 22 21 19 18 18 17 16 15 16 17 18 17 16 15 14 13 13 13 11 10 9 8 8 10 11 12 12 13 13 12 12 12 12 12 11 11 10 9 7 6 6
4 2 2 4 4 4 5 2 5 8 8 5 3 3 4 3 4 6 5 3 4 3 3 3 2 1 0 4 11 15 17 19 21 23 24 21 21 23 25 26 25 23 21 20 21 22 21 19 18 19 19 18 17 16 16 18 17 16 16 15 13 13 12 11 10 9 9 10 12 13 13 14 14 14 13 13 14 14 14 14 13 13 13 12 10 8
3 2 3 3 2 3 2 1 1 4 5 4 3 4 4 5 5 4 3 4 4 4 5 6 2 2 3 9 13 16 17 17 19 23 26 25 24 24 26 27 23 21 21 23 25 24 21 19 19 19 19 18 17 16 16 18 17 16 16 14 13 12 11 9 8 8 9 10 12 13 14 15 15 15 15 15 15 16 15 15 15 15 15 15 14 13
4 2 3 4 4 3 4 4 4 5 3 2 4 5 4 5 6 5 4 5 3 3 4 5 4 2 6 12 14 15 15 15 17 22 25 26 27 26 27 26 23 23 26 27 27 24 21 20 20 19 18 16 16 16 17 17 16 16 15 13 11 10 9 8 7 8 9 10 12 14 15 17 17 17 16 16 17 17 16 16 16 16 16 15 15 15
2 2 3 4 6 6 4 3 3 4 4 3 5 6 3 3 5 6 5 4 5 5 3 2 9 11 9 12 14 14 16 14 15 20 23 25 26 26 26 26 25 26 27 26 26 24 22 21 19 18 17 15 15 16 16 15 15 15 14 12 10 9 8 8 7 8 9 11 14 16 18 19 19 18 18 18 18 17 17 17 16 16 17 16 15 15
2 4 5 4 7 7 3 1 2 4 4 5 7 7 4 4 5 6 5 6 8 7 2 3 15 16 10 12 13 14 16 15 14 20 25 25 26 26 26 27 27 27 27 26 25 23 22 21 19 18 16 15 16 17 16 15 16 15 13 12 11 10 9 8 8 10 12 14 17 19 19 19 19 18 18 17 17 17 16 16 16 16 16 16 16 16
4 4 5 4 4 2 4 3 5 7 4 4 4 3 3 5 6 5 6 9 10 8 6 12 17 17 14 14 14 14 17 18 19 24 27 28 28 28 27 27 27 28 27 26 24 23 22 22 20 18 15 16 17 17 16 17 16 14 13 13 12 12 11 9 9 12 15 18 21 21 21 20 20 19 19 18 17 17 16 16 16 16 15 16 17 17
6 3 5 4 3 7 8 4 7 9 6 7 9 7 5 4 6 6 7 9 6 8 15 19 16 13 12 13 14 17 22 25 26 28 28 29 29 27 27 27 27 27 27 26 24 23 22 21 20 17 16 17 17 16 16 17 15 14 14 14 14 14 13 12 12 15 17 20 21 20 20 20 20 20 20 19 19 18 17 17 16 15 15 15 16 17
8 2 5 3 4 6 7 6 8 10 9 7 8 11 11 8 4 5 7 7 8 9 15 18 12 6 6 11 16 21 27 29 27 27 28 28 28 28 27 28 28 28 27 26 24 22 21 21 19 18 18 19 18 17 18 17 15 14 15 15 15 16 15 15 17 19 20 20 19 18 18 18 18 19 19 20 20 19 19 19 18 17 16 16 17 17
7 2 3 3 4 3 5 5 6 9 10 8 9 12 12 7 3 3 2 3 9 15 17 14 9 5 7 14 18 21 26 27 25 26 27 26 27 30 30 29 29 29 27 26 25 23 22 20 19 19 18 18 18 18 18 16 15 15 15 15 16 16 16 18 21 23 23 22 21 19 19 18 17 18 18 19 19 20 21 21 21 20 20 19 19 20
7 4 2 2 4 2 6 3 2 5 7 4 6 8 7 4 1 4 5 4 9 17 15 10 8 9 13 17 18 18 20 22 24 28 28 27 28 30 32 32 31 30 28 27 25 23 21 19 19 19 17 17 18 19 16 15 15 16 15 15 15 16 18 21 23 24 23 23 22 21 20 19 18 18 18 18 18 20 21 22 23 23 23 22 22 22
7 7 1 1 3 2 6 5 4 3 2 2 5 5 2 1 2 7 8 7 5 8 8 8 12 13 15 16 17 17 19 22 26 29 31 32 33 32 32 32 32 30 28 25 24 22 21 21 21 20 19 19 19 18 16 15 16 17 17 17 18 19 22 23 23 23 23 23 24 24 23 21 20 19 18 18 19 21 22 23 23 24 23 23 23 23
8 7 3 2 3 1 3 4 3 2 3 2 4 3 6 7 8 14 14 9 6 10 13 16 17 16 15 16 18 19 22 25 27 26 27 31 34 35 34 33 32 30 27 25 24 23 22 23 23 22 21 21 20 19 18 18 19 20 20 20 21 22 23 23 22 22 22 23 25 26 25 24 22 21 20 20 20 22 23 23 23 23 23 22 23 24
8 7 3 3 3 1 2 4 2 4 3 1 3 4 4 5 5 11 13 9 5 10 14 16 16 16 18 22 24 24 26 28 26 24 26 30 32 34 34 34 32 29 27 26 25 24 23 22 22 22 21 21 20 19 20 21 22 23 23 23 22 23 22 21 22 22 22 23 25 27 27 26 25 24 23 22 22 23 24 23 23 22 22 22 23 24
8 7 4 3 2 2 3 2 1 0 1 1 2 3 3 2 2 4 6 3 4 6 14 16 15 17 20 24 28 30 31 29 21 17 24 31 31 31 32 32 31 28 27 26 23 22 21 19 19 20 20 20 19 19 21 23 23 23 23 22 21 22 22 22 23 23 24 25 25 27 28 27 27 26 24 24 24 25 25 24 23 22 21 21 23 24
5 5 6 4 1 3 5 2 2 1 2 3 4 6 7 6 3 6 7 3 4 3 15 18 16 18 21 25 31 32 29 19 9 9 23 31 30 31 31 30 29 27 26 24 21 19 18 17 17 19 19 19 20 20 21 21 21 21 21 21 21 21 22 24 24 24 24 25 25 26 28 28 28 28 26 26 27 27 26 25 24 22 21 22 23 24
8 5 5 6 3 2 4 3 3 2 2 5 7 6 7 9 9 8 6 1 2 6 16 21 19 21 24 28 33 31 20 9 3 11 25 32 31 31 31 29 28 25 23 21 19 18 18 18 19 19 18 19 19 19 19 18 17 18 20 20 20 21 23 24 23 22 23 24 24 25 28 29 30 30 29 28 28 28 28 28 26 23 21 21 22 23
8 5 4 5 4 3 3 3 2 1 2 5 5 5 10 12 9 7 0 4 8 14 20 24 24 26 29 32 32 22 9 7 13 21 29 34 32 31 30 28 27 24 22 21 20 20 20 21 21 21 19 18 17 16 15 15 15 18 19 19 19 21 22 22 20 20 21 22 22 24 27 28 29 30 31 30 29 28 29 29 28 26 24 22 22 22
5 4 3 4 4 4 4 3 0 2 3 4 3 10 17 13 7 3 4 7 17 23 25 27 29 30 33 32 24 11 6 16 30 35 35 35 34 31 29 26 25 24 25 24 23 21 21 21 22 22 21 19 17 15 13 13 15 17 17 18 19 20 20 20 19 20 21 22 23 24 25 27 28 29 30 30 29 29 29 30 30 30 28 25 23 23
2 3 3 3 3 3 3 3 2 2 3 2 5 11 15 9 2 3 5 15 31 33 27 28 31 32 33 28 19 17 22 30 38 39 37 36 35 33 30 28 28 28 27 25 23 23 22 21 21 22 22 20 19 17 16 17 18 18 18 18 20 20 20 20 20 20 22 23 23 24 25 26 27 28 29 30 30 30 31 31 31 32 31 29 26 25
2 2 2 1 2 3 3 3 3 2 3 7 9 7 6 3 4 8 13 21 33 36 31 30 30 31 31 26 24 30 37 38 38 38 37 36 35 33 32 31 31 30 28 26 25 24 23 23 22 22 21 19 19 20 20 21 22 21 20 20 20 20 20 20 20 20 21 23 24 24 25 25 26 27 28 29 29 30 31 32 33 34 34 32 30 28
1 2 2 2 1 2 2 2 2 2 2 6 8 4 3 3 9 21 26 24 27 33 34 32 29 29 29 30 35 40 40 38 38 36 36 36 35 33 33 31 29 28 28 27 26 23 23 23 22 21 19 18 20 22 22 23 24 23 21 21 19 19 19 19 19 20 22 23 24 24 24 25 25 26 27 28 28 29 30 32 34 36 37 36 34 32
1 3 4 2 1 2 3 2 1 4 4 5 7 8 10 11 15 25 33 32 31 34 36 34 32 30 30 35 41 42 39 39 38 36 36 37 35 34 34 31 30 30 28 27 25 24 24 23 22 20 19 18 20 22 22 23 24 24 24 22 20 19 19 19 19 20 22 23 23 23 23 24 24 25 25 27 28 28 29 31 34 37 38 38 37 35
2 3 4 4 3 3 6 6 5 8 12 15 15 16 19 21 21 25 30 33 33 34 36 36 34 33 35 40 43 41 39 39 38 35 36 36 35 35 34 31 29 29 27 26 26 25 24 23 21 21 20 19 19 20 20 20 22 24 24 23 21 19 18 17 18 20 21 22 22 21 21 22 24 24 24 25 26 27 28 29 32 34 37 38 37 36
2 1 3 4 3 3 4 4 4 8 14 19 22 21 20 22 24 26 28 31 32 32 34 35 34 35 38 42 43 42 40 39 39 37 36 36 36 35 33 31 30 28 27 27 27 25 24 23 21 21 21 19 18 18 17 18 19 21 23 22 21 18 15 15 16 18 20 20 20 19 19 21 22 23 22 24 25 27 27 28 29 31 34 37 37 36
1 2 4 3 3 4 4 4 10 16 17 19 23 24 23 23 24 26 28 30 31 32 33 34 35 37 39 41 44 44 41 39 40 39 37 37 36 34 32 31 31 29 28 27 26 25 25 23 21 22 22 21 20 18 17 16 17 18 20 21 20 18 16 15 16 16 18 19 18 17 17 19 20 21 21 22 24 25 27 27 28 29 32 34 35 35
5 4 3 4 5 6 6 9 14 17 14 14 20 24 25 27 28 28 30 31 33 35 35 35 35 37 40 41 44 46 42 39 39 40 39 37 35 32 31 31 31 30 28 26 25 25 25 23 23 23 23 22 20 19 17 17 17 17 17 18 17 16 16 16 16 16 16 16 16 15 15 17 18 19 21 21 22 24 26 26 27 27 29 31 33 33
6 4 4 6 7 5 4 7 11 10 7 9 19 26 27 28 31 32 33 34 36 37 38 37 36 37 39 40 43 45 44 42 39 38 37 35 34 33 33 32 32 30 28 27 27 25 23 22 21 22 22 22 20 18 17 17 18 17 15 14 14 14 14 14 15 16 15 14 14 14 14 15 17 18 20 20 21 22 24 25 25 26 27 29 31 32
3 8 7 6 4 4 8 13 15 15 12 14 23 29 29 30 32 34 35 36 37 37 38 39 38 38 38 39 41 43 44 43 40 37 36 35 35 35 33 32 31 30 29 28 27 25 23 23 22 21 21 21 20 19 18 17 17 14 12 12 13 13 13 13 14 15 15 14 13 13 13 14 16 18 19 19 20 21 22 24 24 24 25 27 29 31
Wind_Direction
185 187 213 211 206 205 206 177 167 201 215 207 199 206 219 209 227 228 240 245 183 174 220 203 210 221 162 144 153 155 152 144 141 138 136 136 133 134 135 135 136 133 133 137 140 142 144 147 149 147 141 138 146 151 154 156 154 156 153 149 154 160 168 176 184 194 204 213 221 228 238 251 260 265 268 271 269 266 266 266 272 276 281 288 289 290
189 213 221 202 182 188 193 169 167 209 236 234 217 217 235 219 226 228 223 233 193 180 227 197 193 236 188 155 151 147 149 148 148 144 139 139 135 135 135 133 134 132 134 138 138 141 143 146 146 143 140 140 146 151 153 150 145 146 147 152 159 163 174 186 196 210 223 228 237 249 254 257 264 270 273 275 279 280 283 287 292 296 295 296 297 297
209 225 202 172 170 177 186 176 179 210 227 236 227 204 232 232 232 243 233 226 200 194 225 176 170 245 35 142 143 143 152 154 152 147 142 141 137 137 137 136 136 135 135 136 136 139 142 145 145 142 142 143 145 151 153 146 140 141 145 152 159 165 176 192 210 223 234 238 248 261 262 264 268 272 274 277 286 295 305 310 311 313 312 310 310 308
214 220 167 165 178 178 193 191 185 210 226 231 219 195 227 234 201 247 260 232 208 210 207 154 148 57 66 121 113 119 133 127 129 132 133 137 137 137 139 138 137 136 135 133 132 135 138 140 141 140 138 137 141 142 141 140 139 141 146 153 160 169 181 196 216 229 241 244 252 262 264 271 274 271 281 292 308 314 312 310 311 314 316 315 315 313
225 182 162 176 189 184 196 199 191 204 226 232 222 200 216 231 205 199 251 240 215 221 190 112 100 38 81 134 98 83 109 106 111 115 116 127 132 132 134 136 136 136 135 133 132 133 134 135 133 133 134 135 138 134 128 132 135 139 146 153 161 175 190 204 217 226 240 247 247 252 254 260 258 250 267 274 273 283 290 295 302 309 312 312 312 314
234 184 171 182 197 194 198 204 199 195 211 240 230 207 211 227 211 203 264 266 201 229 204 122 108 20 325 139 130 115 101 99 108 109 113 124 128 128 130 134 135 134 135 133 133 134 136 138 136 136 141 144 142 136 136 140 139 145 156 162 166 176 188 205 220 221 224 229 225 228 234 242 248 249 257 264 263 266 281 292 298 302 304 304 307 310
216 191 178 186 196 198 204 211 206 188 195 238 218 190 211 222 203 219 264 150 184 230 208 157 133 106 307 279 143 131 116 117 114 107 114 122 125 126 127 132 134 134 135 134 134 138 141 143 143 144 149 155 150 144 150 157 160 166 171 175 177 181 190 201 217 220 217 222 220 222 232 242 253 257 260 270 275 280 290 296 296 296 298 301 301 303
187 192 189 192 194 199 208 211 202 183 193 231 187 163 202 210 202 219 221 197 220 265 243 147 127 121 189 221 172 136 122 124 125 120 120 118 119 122 125 131 134 134 136 134 135 139 142 142 143 148 150 156 156 155 163 167 167 172 175 182 184 189 199 203 213 217 218 225 227 229 237 246 257 265 270 274 277 282 288 291 293 295 299 303 302 302
171 195 197 191 194 205 210 204 188 182 201 231 189 167 185 175 191 208 204 227 223 199 270 179 134 116 161 190 172 145 132 135 139 134 126 120 121 122 125 129 130 132 135 135 134 137 142 143 145 151 151 150 150 155 168 168 168 172 172 183 190 192 203 207 209 215 223 232 236 240 244 251 261 270 276 279 281 283 287 289 292 294 297 301 303 304
171 206 204 190 200 211 203 192 185 192 207 228 205 205 176 147 181 199 200 220 183 159 219 204 164 127 177 209 176 164 153 147 143 135 127 123 126 127 127 128 128 129 132 136 136 135 138 142 146 149 149 153 155 159 169 169 177 186 180 191 202 204 209 212 215 222 228 235 245 252 254 255 261 267 270 275 281 283 285 286 289 290 292 298 302 305
201 206 211 207 208 204 188 198 209 208 210 226 229 226 207 123 169 209 215 179 156 222 221 208 186 138 149 222 195 185 165 151 143 135 135 129 128 130 129 128 128 126 128 134 136 134 134 138 144 147 148 160 166 170 178 182 196 209 207 209 215 218 220 222 227 231 233 239 247 251 256 259 259 262 265 269 275 279 282 283 285 288 291 298 303 304
227 204 210 219 209 192 181 208 219 217 215 220 225 200 193 320 47 241 257 143 164 237 225 205 188 144 154 214 205 195 166 154 152 146 146 139 132 132 130 129 129 127 127 129 131 131 132 134 141 146 149 159 173 188 202 202 205 212 218 222 227 230 231 233 236 237 237 239 242 246 255 258 259 263 268 271 275 280 285 288 294 298 296 300 301 301
232 221 213 215 210 192 184 201 212 212 212 216 216 170 164 187 173 205 236 201 194 238 226 190 182 159 168 222 196 178 175 167 158 145 143 141 135 134 133 131 130 129 127 127 128 130 131 133 137 141 143 149 167 189 196 194 199 205 217 228 234 241 245 247 247 245 242 241 240 243 252 257 260 266 269 270 272 276 283 294 310 316 308 307 307 309
224 250 230 213 209 196 191 189 194 203 201 207 209 179 169 159 164 192 207 213 218 239 226 173 175 194 176 331 237 170 165 151 136 131 133 136 135 134 132 130 129 129 129 130 131 131 131 131 129 134 147 159 163 160 152 158 172 178 186 250 281 285 292 290 273 258 246 241 239 240 247 254 258 260 260 262 261 264 275 289 307 313 313 320 322 323
199 236 224 208 200 191 198 199 194 196 195 209 204 151 159 160 161 193 190 193 211 212 2 139 171 232 147 32 71 131 124 113 119 123 126 130 131 130 130 129 128 129 129 130 130 128 128 127 123 129 141 149 138 124 121 124 125 117 84 55 67 79 72 65 58 49 57 202 228 233 238 244 250 251 250 253 256 260 269 279 289 298 308 318 321 322
201 233 222 212 210 190 202 206 186 176 188 208 176 126 181 182 147 177 187 171 162 133 30 25 87 12 87 73 88 107 104 104 115 119 120 124 126 127 127 129 130 130 130 129 126 122 121 120 118 118 118 115 114 116 118 117 113 103 86 83 87 85 78 70 63 57 54 55 60 77 183 225 245 253 252 258 263 263 264 271 282 295 305 303 305 310
190 236 226 208 217 204 203 199 182 188 187 175 179 180 196 171 134 135 186 166 114 117 62 297 121 105 111 62 90 111 108 109 115 115 118 122 126 127 127 130 131 130 130 129 125 121 118 116 114 112 112 110 110 119 131 133 123 109 99 97 92 84 77 69 60 56 52 50 57 66 72 82 83 73 305 290 280 267 267 271 279 291 300 296 295 300
166 231 239 204 213 215 204 196 193 197 181 156 197 193 148 128 127 108 146 208 89 116 196 232 164 166 162 152 131 122 115 120 125 122 124 126 128 127 126 129 129 128 128 127 124 122 119 117 113 112 116 117 117 125 128 122 114 106 100 101 98 90 83 74 64 60 58 57 63 68 70 73 70 61 39 4 323 283 275 277 278 282 287 289 289 288
163 224 254 214 207 214 202 194 199 205 198 191 183 162 132 151 192 145 162 191 134 123 145 167 174 185 175 165 156 141 136 140 140 135 135 135 133 128 126 128 128 127 127 125 124 123 119 116 112 112 120 123 123 122 116 108 105 103 98 100 103 96 88 82 74 69 67 65 68 66 58 51 43 35 29 20 5 334 297 289 288 285 283 283 285 283
248 172 255 228 200 194 195 192 194 203 208 202 133 148 161 164 175 174 173 158 134 142 146 147 175 222 213 163 162 156 150 148 147 145 141 140 136 132 132 132 130 129 130 128 128 124 119 116 113 117 125 126 118 115 112 105 103 106 102 104 111 104 95 90 81 73 67 62 60 57 48 36 30 28 29 28 21 7 347 329 317 303 293 286 284 283
228 182 241 262 203 187 193 202 197 196 197 183 142 174 187 166 154 169 175 124 124 145 149 145 182 237 217 168 163 156 149 144 143 139 135 137 136 135 135 133 131 131 132 131 129 123 119 118 119 127 132 127 118 115 112 103 104 113 108 105 111 108 101 94 86 76 62 49 43 39 39 38 36 37 37 35 30 23 17 8 356 339 320 299 287 282
161 198 223 284 221 189 203 208 197 191 179 162 160 194 192 168 137 135 204 236 110 129 154 156 169 193 241 182 158 151 147 143 139 133 131 135 135 133 133 133 133 131 128 128 127 123 122 123 127 133 131 126 120 113 107 103 107 114 107 103 108 107 100 94 88 79 62 45 38 36 39 45 50 49 43 37 34 32 28 22 18 7 349 327 309 295
164 140 188 251 244 211 219 207 183 171 154 145 168 187 164 149 131 133 187 222 84 87 117 118 124 139 307 174 148 143 139 138 137 133 129 131 131 131 132 133 132 129 127 129 129 125 124 125 126 126 124 122 121 114 109 108 110 109 105 107 110 106 101 96 89 80 66 52 47 46 48 52 56 53 44 38 37 36 32 28 23 16 7 0 352 334
177 134 167 236 273 277 266 220 149 150 141 138 180 157 132 165 162 145 170 171 118 127 125 81 72 213 212 128 132 132 130 132 135 133 129 128 129 131 132 134 134 131 129 131 131 128 127 127 125 124 123 123 122 120 115 112 111 111 112 114 112 108 104 99 90 79 67 57 53 53 54 54 56 53 44 39 38 36 33 29 25 21 17 14 11 6
190 174 149 183 243 284 283 29 85 157 152 155 187 175 159 170 154 141 146 108 109 186 161 123 137 215 151 131 129 129 128 129 133 134 132 131 133 135 136 136 135 129 125 126 129 129 127 127 127 125 124 124 123 120 116 114 114 115 117 117 112 106 100 94 87 75 66 59 55 55 54 54 55 53 47 43 41 39 35 31 27 24 22 18 15 14
185 170 132 159 188 189 172 187 202 185 169 164 167 169 180 173 155 151 141 112 129 184 130 123 145 139 130 133 133 135 134 132 135 135 134 135 137 140 140 137 132 125 123 125 127 127 125 124 124 122 121 124 125 121 117 117 118 117 117 114 106 100 92 85 78 70 67 63 58 54 54 55 55 54 52 49 48 45 41 39 35 30 28 25 21 17
164 200 168 174 193 190 185 219 207 151 149 172 167 159 160 161 140 125 126 149 162 134 60 118 143 134 141 144 140 143 140 136 139 137 136 138 140 141 140 135 129 125 124 126 126 124 122 120 119 118 118 120 123 121 118 118 119 119 119 112 102 92 83 77 71 70 72 70 63 57 57 59 58 57 56 54 53 50 47 45 42 39 36 32 29 25
110 221 204 202 215 208 197 316 31 97 144 162 164 161 134 106 116 122 145 170 152 118 50 170 143 138 154 154 144 147 144 139 143 142 140 142 141 140 137 131 126 124 125 127 127 125 122 119 118 117 116 119 119 117 117 119 121 122 116 104 91 79 71 66 66 73 76 72 66 60 60 60 57 57 57 55 53 50 47 46 44 42 39 34 32 30
114 242 220 183 215 298 14 29 66 74 79 76 92 135 136 135 147 152 168 172 158 137 154 171 158 151 158 156 149 150 146 140 141 142 141 141 140 139 135 129 126 126 126 126 127 126 124 121 121 121 121 121 119 117 119 119 118 112 100 87 77 71 67 63 67 76 76 71 67 63 61 59 55 54 53 51 49 45 43 42 41 40 38 34 33 31
122 275 262 170 107 17 8 23 82 86 76 50 44 37 46 112 151 153 156 154 138 134 149 157 157 151 152 152 146 141 137 134 135 138 139 140 140 138 134 130 128 128 127 126 127 128 128 125 125 128 127 121 117 119 121 118 111 100 89 81 75 71 68 66 69 75 75 74 72 69 65 61 56 53 51 48 46 41 37 35 33 33 32 30 29 26
139 231 267 155 78 7 359 29 77 96 95 70 41 26 24 35 72 111 132 117 83 103 133 135 129 120 123 127 128 132 134 133 135 140 142 143 142 137 132 131 130 129 128 128 129 131 133 132 132 133 129 119 116 119 120 116 108 97 86 78 73 70 68 67 70 73 73 73 72 68 64 60 55 52 51 48 44 39 35 32 30 28 26 23 21 18
149 186 307 69 74 330 332 27 81 95 84 64 30 14 7 10 57 102 124 122 122 125 123 121 127 142 138 127 126 132 137 137 141 144 143 142 140 136 134 133 132 131 130 129 132 135 136 135 134 133 129 123 122 123 119 113 104 93 83 77 74 71 70 71 73 73 73 71 67 64 61 57 54 52 51 49 43 37 34 31 31 30 27 23 20 17
141 116 0 55 90 296 298 324 70 80 76 51 354 347 334 314 108 95 40 32 123 133 136 150 158 151 144 139 137 141 144 144 147 147 144 141 139 138 138 136 133 133 134 135 138 138 134 132 132 132 131 129 126 121 114 106 96 87 81 79 78 76 76 76 76 74 72 68 63 60 59 57 56 55 51 47 41 37 36 36 35 34 33 31 27 23
122 114 114 103 105 253 289 328 31 76 134 240 311 322 331 1 90 94 67 36 68 106 116 128 130 133 142 145 144 147 147 147 148 148 146 145 144 141 139 137 136 135 138 142 143 139 132 129 128 128 129 128 123 115 105 97 90 84 83 84 85 83 80 78 77 73 68 64 59 57 57 58 59 58 53 47 42 41 42 43 42 40 39 37 34 30
112 110 120 97 100 196 303 12 70 184 231 268 309 345 80 90 92 87 68 37 53 88 97 109 121 132 134 131 131 133 136 139 142 143 145 147 147 144 140 139 140 141 141 143 143 140 135 131 127 125 126 126 122 112 103 95 89 87 87 89 88 83 79 77 76 72 67 63 60 57 57 60 61 60 57 52 48 47 47 46 46 45 44 42 39 36
124 117 110 92 92 96 21 38 130 212 263 358 322 327 71 81 70 77 63 25 42 106 117 118 123 126 121 120 123 124 125 124 121 127 141 147 146 144 142 143 145 145 143 142 142 141 138 135 131 127 125 125 122 114 104 97 93 91 93 94 90 82 78 75 73 70 67 64 61 57 56 59 61 61 60 56 52 50 48 47 47 47 46 44 43 40
122 122 106 80 65 105 97 48 43 292 305 43 317 280 164 126 354 75 92 28 8 110 128 125 122 123 122 122 125 124 122 115 101 109 136 143 145 145 145 146 147 146 143 142 142 140 137 137 136 132 128 126 123 117 110 103 100 100 100 98 91 82 77 74 73 73 70 67 63 58 57 58 59 60 60 57 54 51 49 47 47 47 45 44 44 42
90 131 137 117 64 106 115 99 62 58 258 226 221 221 199 173 133 108 108 72 336 139 138 134 129 130 131 131 131 130 126 116 98 124 138 141 145 146 145 145 146 144 143 143 141 137 135 136 138 138 135 127 120 118 117 112 109 108 104 98 90 83 77 74 75 74 71 67 63 59 57 56 56 58 58 57 56 53 51 49 48 47 46 45 45 45
55 74 106 105 105 124 111 117 150 169 240 220 206 209 203 175 136 101 90 104 257 170 148 140 137 139 142 142 141 141 134 122 141 154 145 143 146 147 145 143 142 141 141 140 138 134 131 130 133 137 136 127 120 120 121 119 114 109 103 96 89 83 78 75 75 73 68 65 65 62 58 55 55 55 55 55 56 55 53 52 50 50 50 48 47 47
44 39 63 93 118 130 98 102 161 209 234 220 199 164 173 170 134 94 30 216 177 168 160 151 146 147 148 148 149 150 149 152 156 153 147 144 145 146 144 141 140 139 136 134 133 130 125 122 121 123 122 121 122 125 126 123 116 108 102 96 89 83 79 77 76 73 67 66 67 65 60 56 55 54 52 52 54 54 54 53 52 51 51 50 49 48
30 31 65 103 115 112 98 101 151 288 249 225 174 149 155 151 118 107 238 191 159 161 164 157 152 151 151 152 154 145 120 142 147 145 144 143 142 143 142 138 136 134 131 131 130 127 123 121 117 113 109 108 113 124 130 127 118 110 104 98 91 85 83 81 79 75 69 67 68 66 62 59 57 54 52 50 50 52 52 51 51 50 50 50 50 49
39 40 57 86 118 120 97 97 107 286 256 184 147 153 150 139 136 223 193 158 153 157 162 160 156 154 152 151 144 127 127 138 142 141 142 143 142 141 140 136 133 132 132 131 130 129 129 128 123 114 107 102 101 104 109 112 111 110 108 101 93 90 89 86 82 77 71 67 67 66 64 62 58 55 52 49 48 49 49 48 48 47 48 48 48 48
125 104 88 106 138 111 64 87 131 204 202 139 128 144 156 167 183 146 128 142 153 155 157 159 157 156 152 143 133 134 137 140 142 142 142 142 141 140 139 137 135 137 137 133 129 129 132 134 128 117 108 102 94 92 96 102 105 108 108 103 98 95 92 88 83 78 71 66 66 67 64 61 58 55 52 49 48 47 46 44 43 43 44 45 46 46
159 130 148 215 211 126 126 176 188 282 239 165 152 157 180 194 163 142 134 141 154 156 157 158 159 159 154 142 136 139 141 142 144 144 142 142 142 141 140 139 139 141 141 136 132 132 133 133 128 119 113 105 96 94 98 101 103 106 105 103 103 100 94 89 84 78 71 67 65 65 62 60 58 55 52 50 48 47 45 42 40 41 41 41 42 44
157 135 134 136 125 122 129 165 140 46 65 136 152 139 132 143 156 153 148 149 156 160 160 159 158 157 154 146 142 142 143 144 145 145 145 145 145 143 142 142 141 140 139 136 133 134 133 128 124 124 124 115 102 98 101 101 101 101 100 100 104 103 97 93 88 78 72 69 67 63 60 59 57 54 51 48 46 47 45 41 39 41 40 39 39 41
126 111 99 102 123 101 61 55 72 76 82 98 114 124 131 139 149 153 150 150 155 160 161 159 157 155 153 150 146 144 145 147 146 146 147 147 146 145 144 143 141 141 140 138 136 135 133 127 126 131 134 124 109 104 105 104 102 100 99 99 100 98 96 94 89 80 73 72 70 65 60 57 55 53 51 47 45 46 45 41 40 40 40 39 39 40
277 275 81 93 130 120 61 43 72 88 94 102 109 117 125 132 143 149 149 150 154 157 157 156 156 153 152 151 148 146 148 148 146 147 148 147 146 147 145 144 143 142 140 138 138 137 135 131 131 138 140 130 117 111 112 112 107 103 101 100 98 95 96 98 91 80 74 74 74 70 62 56 53 51 50 49 47 45 44 43 41 40 39 39 39 40
234 127 105 87 76 87 101 112 95 91 99 110 115 121 126 130 138 144 147 149 152 153 154 155 156 154 153 153 152 150 149 149 149 148 149 149 148 149 148 146 144 142 140 141 141 139 137 131 126 130 134 128 120 117 117 117 117 112 107 104 101 98 97 96 89 80 77 79 80 74 64 55 52 51 51 50 47 44 44 44 43 41 40 39 39 41
129 117 111 109 102 92 104 122 107 92 88 104 116 125 133 137 139 141 143 147 149 150 152 155 156 156 155 154 154 151 149 150 150 149 150 151 151 152 151 148 145 143 142 143 143 142 141 135 126 123 125 125 122 119 113 111 116 120 116 111 109 103 95 88 81 77 78 81 82 77 67 57 54 54 54 53 49 45 44 45 45 44 42 41 40 41
105 122 124 121 131 141 156 157 136 113 99 118 126 130 136 140 141 141 143 146 149 151 153 152 153 155 156 155 155 152 150 150 150 150 151 153 153 152 149 146 145 144 143 142 143 143 144 142 136 129 125 125 125 123 117 114 116 119 119 119 116 105 93 88 83 78 78 79 79 76 69 61 57 56 56 55 52 47 43 44 47 46 44 43 42 42
168 173 162 132 128 154 156 150 134 120 120 132 134 135 139 143 143 143 145 148 149 152 153 152 151 152 152 154 155 153 151 150 151 152 152 152 152 151 148 146 146 146 145 145 143 141 140 142 141 137 132 133 134 130 123 121 121 118 114 122 126 114 99 96 94 86 80 79 81 78 70 64 58 55 56 56 53 48 43 43 47 48 45 44 43 43
Height
1470 1474 1472 1469 1469 1470 1473 1475 1478 1478 1477 1479 1481 1482 1481 1481 1482 1477 1474 1471 1470 1476 1478 1477 1479 1479 1483 1485 1486 1490 1493 1495 1497 1498 1499 1501 1503 1504 1507 1509 1512 1514 1516 1519 1520 1522 1524 1525 1526 1527 1528 1529 1530 1532 1533 1534 1534 1534 1535 1535 1536 1537 1539 1540 1541 1542 1542 1542 1543 1543 1544 1544 1544 1543 1543 1543 1542 1543 1542 1542 1542 1541 1541 1540 1540 1539
1469 1470 1465 1465 1468 1470 1471 1474 1475 1477 1477 1478 1480 1482 1481 1481 1479 1473 1472 1470 1469 1475 1476 1476 1479 1480 1482 1484 1485 1490 1495 1496 1496 1497 1498 1501 1503 1505 1506 1509 1511 1513 1516 1518 1521 1523 1524 1526 1527 1528 1529 1530 1531 1532 1533 1534 1534 1534 1535 1536 1537 1538 1539 1540 1540 1541 1542 1542 1542 1542 1543 1543 1543 1543 1543 1542 1542 1541 1541 1541 1541 1541 1540 1540 1539 1539
1467 1464 1462 1465 1468 1468 1470 1472 1474 1476 1476 1477 1479 1482 1483 1480 1476 1473 1471 1469 1469 1474 1475 1476 1480 1483 1484 1484 1485 1489 1495 1498 1497 1496 1497 1499 1502 1504 1506 1507 1510 1513 1516 1518 1521 1523 1525 1526 1528 1529 1530 1531 1532 1533 1534 1534 1533 1534 1535 1536 1537 1538 1539 1540 1540 1541 1542 1542 1542 1542 1542 1543 1543 1542 1542 1541 1540 1540 1540 1540 1540 1539 1539 1539 1538 1538
1467 1463 1462 1465 1466 1467 1470 1470 1473 1475 1476 1476 1478 1482 1483 1478 1478 1479 1474 1470 1470 1471 1472 1476 1482 1487 1489 1488 1489 1493 1496 1499 1501 1500 1501 1501 1502 1504 1506 1508 1510 1513 1516 1519 1521 1523 1525 1527 1528 1529 1531 1532 1533 1534 1534 1534 1534 1534 1535 1536 1537 1538 1539 1540 1540 1541 1541 1542 1542 1542 1542 1542 1541 1541 1541 1540 1540 1539 1538 1538 1538 1538 1537 1537 1536 1536
1463 1459 1460 1464 1465 1466 1469 1469 1471 1475 1476 1475 1475 1479 1479 1476 1477 1478 1474 1472 1471 1469 1470 1476 1488 1497 1496 1494 1496 1498 1498 1500 1502 1502 1504 1505 1505 1506 1508 1510 1513 1514 1516 1519 1521 1523 1525 1527 1529 1530 1531 1532 1533 1534 1534 1534 1534 1534 1535 1536 1537 1537 1538 1539 1539 1540 1540 1541 1541 1541 1541 1541 1540 1540 1540 1539 1538 1538 1537 1537 1537 1536 1536 1536 1535 1535
1460 1457 1457 1461 1463 1464 1466 1468 1468 1471 1476 1475 1470 1471 1473 1473 1475 1476 1474 1475 1480 1479 1472 1474 1494 1510 1505 1499 1500 1499 1501 1504 1504 1504 1505 1507 1508 1508 1510 1512 1515 1516 1516 1519 1520 1522 1524 1526 1529 1530 1531 1532 1532 1533 1533 1534 1534 1534 1535 1536 1536 1537 1537 1538 1538 1539 1539 1539 1539 1540 1540 1540 1539 1539 1538 1537 1536 1536 1536 1535 1535 1535 1534 1534 1534 1533
1456 1456 1455 1458 1461 1462 1464 1465 1463 1465 1475 1474 1464 1463 1468 1471 1475 1476 1475 1480 1487 1483 1471 1469 1492 1516 1514 1505 1503 1499 1502 1506 1505 1505 1506 1508 1509 1510 1511 1513 1515 1516 1516 1518 1521 1522 1524 1526 1528 1530 1531 1532 1532 1533 1534 1534 1534 1535 1535 1536 1536 1537 1537 1538 1538 1538 1539 1538 1538 1539 1538 1538 1537 1537 1536 1535 1535 1534 1533 1533 1532 1532 1532 1532 1532 1532
1450 1454 1455 1455 1458 1461 1462 1460 1458 1460 1469 1467 1458 1460 1467 1471 1476 1476 1475 1481 1482 1476 1473 1470 1483 1508 1516 1508 1503 1500 1502 1507 1507 1507 1507 1507 1509 1510 1512 1514 1515 1516 1517 1518 1520 1523 1525 1526 1527 1530 1531 1532 1533 1534 1534 1535 1535 1535 1536 1536 1536 1537 1537 1538 1538 1538 1538 1538 1538 1538 1537 1536 1536 1535 1535 1534 1533 1533 1532 1531 1530 1530 1530 1530 1530 1530
1446 1452 1453 1453 1457 1458 1456 1454 1454 1457 1461 1459 1456 1462 1465 1468 1473 1473 1474 1479 1477 1478 1485 1479 1478 1503 1517 1508 1504 1503 1502 1507 1507 1506 1507 1507 1509 1511 1513 1515 1516 1517 1518 1519 1521 1523 1525 1525 1527 1530 1532 1533 1534 1535 1535 1536 1536 1537 1537 1537 1537 1537 1537 1537 1538 1538 1539 1538 1538 1537 1536 1536 1535 1535 1534 1533 1532 1531 1530 1530 1529 1529 1529 1529 1529 1528
1446 1448 1449 1451 1453 1452 1450 1451 1452 1455 1457 1456 1458 1461 1463 1467 1469 1469 1473 1476 1478 1485 1490 1482 1475 1497 1519 1512 1506 1507 1502 1503 1505 1504 1506 1507 1508 1511 1512 1514 1516 1517 1518 1520 1522 1524 1525 1526 1528 1530 1532 1533 1535 1535 1536 1537 1537 1537 1537 1537 1537 1536 1537 1537 1538 1538 1538 1538 1537 1536 1536 1535 1535 1534 1533 1533 1532 1531 1530 1529 1529 1528 1528 1528 1527 1527
1444 1445 1447 1446 1446 1446 1449 1451 1450 1452 1455 1456 1459 1461 1465 1469 1468 1468 1471 1472 1482 1489 1484 1478 1472 1486 1514 1515 1503 1500 1495 1494 1499 1503 1506 1507 1508 1511 1512 1514 1515 1517 1518 1520 1523 1525 1525 1527 1529 1531 1533 1534 1535 1536 1537 1537 1537 1537 1537 1537 1536 1536 1537 1537 1537 1537 1537 1537 1537 1536 1536 1535 1534 1533 1532 1532 1531 1530 1529 1529 1528 1528 1528 1527 1526 1525
1444 1444 1443 1440 1441 1444 1448 1450 1449 1450 1454 1457 1459 1462 1470 1475 1473 1474 1473 1474 1488 1489 1474 1472 1470 1475 1499 1506 1496 1493 1490 1487 1490 1496 1501 1505 1508 1511 1512 1514 1515 1517 1519 1520 1523 1525 1526 1528 1530 1531 1532 1534 1535 1536 1537 1537 1537 1537 1536 1537 1537 1537 1538 1537 1537 1537 1536 1536 1536 1536 1535 1534 1533 1532 1532 1531 1530 1530 1529 1528 1528 1527 1527 1526 1525 1523
1446 1442 1439 1439 1440 1441 1445 1451 1452 1451 1453 1457 1460 1465 1476 1483 1484 1487 1484 1480 1485 1479 1466 1467 1471 1475 1490 1495 1491 1491 1490 1488 1488 1490 1495 1501 1505 1510 1512 1514 1516 1517 1520 1521 1524 1525 1526 1529 1530 1531 1532 1534 1536 1537 1537 1537 1536 1536 1536 1537 1538 1538 1538 1538 1537 1537 1536 1536 1535 1535 1534 1533 1532 1532 1531 1530 1530 1530 1528 1528 1527 1526 1525 1524 1523 1521
1451 1445 1439 1439 1439 1436 1440 1447 1451 1451 1449 1452 1455 1463 1474 1481 1488 1493 1489 1483 1479 1471 1466 1465 1468 1481 1494 1494 1489 1490 1491 1493 1494 1494 1497 1500 1504 1508 1511 1514 1516 1518 1520 1523 1525 1526 1527 1529 1530 1531 1532 1535 1536 1537 1537 1537 1536 1537 1537 1537 1538 1538 1538 1538 1537 1536 1536 1535 1534 1534 1533 1532 1531 1530 1530 1529 1529 1529 1528 1527 1526 1525 1524 1523 1521 1520
1453 1450 1437 1434 1435 1432 1433 1436 1440 1443 1444 1446 1447 1455 1466 1468 1474 1482 1481 1478 1476 1472 1472 1472 1476 1490 1499 1495 1490 1491 1493 1497 1499 1501 1502 1503 1505 1508 1511 1514 1517 1520 1522 1524 1526 1527 1528 1530 1530 1531 1532 1535 1537 1538 1538 1537 1537 1537 1538 1538 1538 1538 1538 1537 1537 1536 1535 1534 1532 1532 1531 1530 1530 1529 1529 1528 1528 1527 1526 1526 1524 1523 1522 1521 1520 1519
1446 1444 1429 1427 1429 1427 1429 1430 1432 1439 1445 1445 1444 1452 1460 1455 1455 1466 1470 1468 1466 1471 1483 1489 1493 1498 1497 1495 1493 1492 1496 1499 1501 1503 1504 1505 1507 1508 1511 1514 1517 1520 1523 1525 1526 1527 1528 1529 1531 1531 1532 1535 1537 1538 1538 1538 1538 1539 1539 1539 1538 1538 1538 1537 1536 1535 1534 1533 1532 1531 1530 1529 1529 1528 1528 1527 1527 1526 1525 1524 1523 1522 1521 1520 1519 1517
1443 1440 1425 1425 1427 1423 1426 1427 1428 1436 1440 1442 1446 1449 1448 1443 1445 1457 1469 1469 1462 1473 1496 1501 1500 1501 1498 1498 1497 1494 1498 1502 1502 1504 1505 1507 1509 1510 1513 1515 1517 1520 1522 1524 1525 1527 1528 1529 1531 1532 1533 1536 1538 1539 1539 1539 1539 1539 1539 1539 1538 1538 1537 1536 1536 1535 1534 1533 1531 1530 1529 1529 1528 1528 1527 1527 1526 1525 1524 1523 1522 1521 1519 1518 1517 1516
1435 1436 1425 1422 1426 1422 1422 1425 1426 1427 1430 1437 1443 1441 1439 1443 1445 1449 1464 1473 1468 1480 1502 1503 1499 1499 1497 1500 1500 1497 1500 1504 1504 1504 1505 1507 1509 1511 1514 1516 1517 1519 1521 1524 1525 1527 1529 1530 1531 1532 1534 1537 1539 1539 1539 1539 1539 1539 1539 1538 1538 1537 1537 1536 1536 1535 1534 1532 1531 1530 1529 1528 1528 1527 1527 1526 1525 1524 1522 1521 1520 1519 1518 1517 1516 1515
1428 1434 1427 1419 1423 1422 1419 1424 1429 1426 1424 1429 1431 1431 1437 1450 1454 1451 1460 1470 1475 1491 1506 1502 1499 1497 1493 1496 1498 1496 1499 1502 1504 1505 1505 1507 1509 1510 1514 1516 1518 1519 1520 1523 1526 1527 1529 1530 1531 1533 1536 1538 1539 1539 1540 1540 1540 1539 1539 1538 1537 1537 1537 1536 1536 1535 1534 1532 1531 1530 1529 1528 1527 1526 1526 1525 1523 1522 1521 1520 1519 1518 1517 1516 1515 1514
1427 1435 1431 1417 1416 1420 1419 1424 1430 1428 1424 1424 1426 1429 1433 1441 1447 1449 1454 1459 1472 1495 1504 1500 1501 1498 1490 1492 1493 1492 1495 1497 1501 1504 1505 1507 1509 1510 1514 1516 1518 1520 1521 1523 1526 1527 1529 1531 1532 1535 1537 1538 1539 1539 1540 1540 1540 1539 1538 1537 1537 1537 1537 1536 1536 1535 1534 1533 1531 1530 1529 1527 1526 1525 1524 1523 1522 1521 1520 1519 1518 1517 1516 1515 1514 1513
1427 1434 1434 1421 1415 1420 1422 1421 1422 1423 1424 1426 1430 1433 1432 1433 1437 1443 1449 1451 1462 1484 1495 1498 1502 1497 1488 1488 1490 1492 1495 1495 1499 1503 1505 1508 1510 1512 1514 1516 1518 1520 1522 1524 1526 1528 1529 1531 1534 1536 1537 1538 1538 1539 1539 1539 1540 1539 1538 1538 1538 1538 1537 1537 1536 1535 1533 1532 1531 1530 1528 1527 1526 1524 1523 1523 1522 1520 1519 1518 1517 1516 1515 1513 1512 1511
1427 1430 1433 1428 1421 1421 1418 1412 1411 1416 1420 1424 1428 1430 1430 1432 1437 1447 1454 1451 1454 1470 1482 1487 1494 1494 1488 1485 1487 1491 1494 1495 1498 1501 1505 1509 1511 1514 1515 1516 1519 1521 1522 1524 1526 1528 1530 1531 1534 1536 1537 1538 1538 1538 1539 1539 1539 1539 1539 1539 1539 1538 1538 1537 1536 1534 1533 1532 1531 1530 1528 1527 1526 1524 1523 1522 1521 1520 1519 1517 1516 1515 1514 1512 1511 1510
1424 1427 1432 1432 1424 1418 1412 1408 1410 1413 1416 1420 1422 1424 1428 1430 1433 1444 1452 1449 1453 1466 1472 1476 1485 1491 1488 1484 1485 1490 1493 1496 1499 1500 1505 1510 1512 1515 1517 1518 1521 1522 1523 1525 1527 1528 1530 1532 1534 1535 1536 1537 1538 1538 1539 1539 1539 1539 1539 1539 1539 1538 1538 1537 1536 1534 1533 1532 1531 1529 1528 1527 1525 1524 1523 1522 1520 1519 1518 1517 1515 1514 1513 1511 1510 1508
1423 1427 1432 1433 1425 1415 1408 1407 1408 1411 1414 1419 1421 1421 1426 1428 1426 1431 1436 1439 1453 1467 1468 1471 1484 1491 1487 1484 1487 1491 1494 1497 1500 1501 1504 1510 1513 1516 1517 1519 1522 1523 1524 1526 1527 1529 1531 1533 1534 1535 1536 1537 1538 1538 1539 1539 1540 1539 1539 1539 1539 1539 1538 1537 1536 1534 1533 1531 1530 1529 1528 1526 1525 1524 1523 1521 1520 1519 1517 1516 1515 1513 1512 1510 1509 1508
1424 1427 1430 1437 1435 1426 1418 1416 1416 1415 1414 1417 1420 1419 1421 1424 1424 1427 1430 1436 1453 1465 1460 1464 1483 1491 1485 1484 1488 1492 1495 1498 1501 1503 1505 1508 1513 1516 1517 1520 1522 1524 1524 1525 1527 1530 1532 1533 1534 1535 1537 1538 1538 1539 1539 1540 1540 1539 1540 1540 1540 1539 1539 1538 1536 1535 1533 1531 1530 1529 1527 1526 1525 1524 1523 1521 1520 1519 1517 1516 1515 1513 1512 1510 1509 1507
1423 1425 1426 1434 1440 1436 1431 1427 1422 1419 1416 1416 1416 1416 1419 1422 1424 1428 1431 1437 1451 1462 1461 1465 1480 1488 1485 1486 1490 1492 1495 1499 1501 1505 1507 1509 1513 1516 1517 1520 1522 1524 1525 1526 1528 1530 1532 1534 1535 1536 1538 1538 1539 1540 1540 1540 1539 1540 1541 1541 1540 1540 1538 1537 1536 1535 1533 1531 1529 1528 1527 1526 1525 1524 1523 1522 1520 1519 1518 1516 1515 1513 1512 1510 1509 1507
1421 1424 1423 1425 1429 1428 1425 1421 1414 1412 1415 1417 1417 1417 1419 1422 1425 1428 1431 1437 1447 1460 1469 1470 1472 1481 1486 1486 1489 1491 1494 1498 1502 1504 1507 1510 1513 1516 1517 1519 1521 1523 1525 1527 1529 1530 1532 1534 1536 1537 1538 1539 1540 1541 1540 1540 1540 1540 1541 1541 1540 1539 1538 1537 1536 1534 1533 1531 1529 1528 1527 1527 1526 1525 1524 1523 1521 1520 1518 1517 1515 1514 1512 1511 1509 1507
1419 1423 1422 1421 1421 1419 1417 1415 1411 1409 1413 1416 1416 1417 1419 1422 1428 1428 1429 1436 1443 1454 1471 1475 1468 1475 1485 1484 1486 1490 1491 1496 1501 1503 1506 1510 1513 1515 1518 1519 1521 1523 1526 1528 1529 1531 1533 1534 1536 1538 1539 1539 1541 1541 1540 1540 1540 1541 1541 1540 1539 1538 1537 1537 1536 1534 1532 1531 1530 1529 1528 1527 1527 1526 1525 1523 1522 1520 1519 1517 1516 1514 1513 1511 1509 1507
1417 1423 1421 1421 1422 1420 1418 1414 1409 1410 1417 1419 1419 1420 1419 1423 1427 1426 1429 1436 1434 1436 1457 1471 1467 1470 1478 1481 1484 1487 1489 1493 1499 1503 1506 1509 1512 1515 1517 1519 1522 1523 1526 1528 1530 1531 1533 1535 1537 1538 1540 1541 1541 1540 1540 1540 1541 1541 1540 1540 1539 1538 1537 1536 1535 1533 1532 1531 1530 1530 1529 1528 1528 1527 1526 1524 1523 1521 1519 1518 1516 1515 1513 1511 1509 1507
1415 1424 1420 1419 1424 1426 1424 1418 1411 1412 1422 1428 1431 1431 1427 1426 1425 1425 1432 1437 1432 1432 1447 1461 1466 1471 1475 1478 1482 1487 1491 1495 1500 1504 1507 1510 1512 1515 1517 1519 1522 1524 1526 1528 1530 1533 1535 1536 1538 1539 1540 1541 1540 1540 1540 1540 1541 1541 1540 1539 1538 1537 1537 1536 1534 1533 1533 1532 1531 1531 1530 1529 1528 1527 1526 1524 1523 1522 1520 1518 1517 1515 1514 1512 1510 1508
1413 1426 1422 1416 1423 1429 1427 1423 1418 1417 1424 1430 1436 1437 1435 1433 1432 1432 1437 1439 1441 1448 1454 1460 1470 1479 1480 1480 1484 1489 1492 1496 1500 1505 1508 1510 1512 1514 1517 1520 1522 1524 1527 1529 1531 1534 1536 1537 1538 1539 1540 1540 1540 1539 1540 1541 1541 1541 1540 1539 1538 1538 1537 1536 1534 1534 1533 1533 1533 1532 1531 1530 1529 1528 1526 1525 1524 1522 1520 1519 1517 1515 1514 1512 1510 1508
1411 1423 1422 1416 1423 1432 1430 1427 1426 1422 1422 1428 1436 1442 1444 1443 1442 1441 1441 1439 1442 1453 1463 1468 1473 1479 1481 1483 1487 1491 1493 1496 1500 1504 1507 1510 1512 1514 1516 1519 1521 1524 1527 1529 1532 1534 1536 1537 1538 1539 1539 1539 1539 1539 1540 1541 1541 1540 1540 1539 1539 1538 1537 1536 1535 1534 1534 1534 1534 1533 1532 1531 1529 1528 1527 1525 1524 1522 1521 1519 1517 1515 1514 1511 1510 1508
1409 1419 1424 1421 1425 1433 1431 1429 1428 1423 1423 1433 1444 1452 1452 1448 1446 1445 1444 1442 1440 1447 1457 1463 1465 1471 1476 1480 1485 1490 1493 1495 1499 1502 1505 1509 1512 1514 1516 1518 1521 1524 1527 1530 1532 1534 1535 1536 1537 1538 1538 1538 1539 1540 1541 1541 1540 1540 1540 1540 1540 1539 1538 1536 1535 1535 1534 1535 1535 1533 1532 1531 1529 1528 1527 1526 1524 1523 1521 1520 1518 1516 1514 1512 1510 1508
1408 1416 1427 1428 1428 1434 1434 1429 1427 1428 1434 1446 1454 1453 1450 1449 1448 1447 1450 1452 1449 1448 1449 1451 1458 1470 1476 1479 1482 1487 1490 1494 1498 1501 1503 1506 1509 1513 1516 1518 1521 1524 1527 1530 1532 1534 1535 1536 1537 1537 1537 1538 1539 1540 1541 1541 1540 1540 1541 1540 1540 1539 1538 1537 1536 1535 1536 1536 1535 1534 1533 1532 1530 1528 1527 1526 1525 1524 1522 1520 1518 1516 1515 1513 1511 1509
1409 1416 1427 1431 1432 1436 1434 1428 1430 1439 1448 1455 1456 1451 1449 1451 1450 1448 1454 1458 1457 1454 1453 1455 1463 1472 1478 1482 1487 1490 1492 1496 1499 1503 1505 1507 1509 1511 1514 1518 1521 1524 1527 1530 1532 1534 1535 1536 1536 1537 1537 1538 1539 1540 1540 1541 1541 1541 1541 1541 1540 1540 1539 1538 1537 1537 1537 1537 1536 1535 1534 1532 1531 1529 1528 1527 1526 1524 1522 1521 1519 1518 1516 1514 1512 1509
1408 1414 1423 1432 1436 1437 1438 1436 1439 1450 1457 1457 1455 1452 1450 1451 1449 1448 1456 1463 1462 1460 1460 1463 1469 1473 1478 1485 1490 1494 1497 1498 1500 1505 1507 1509 1512 1513 1514 1518 1522 1525 1527 1530 1531 1533 1535 1536 1537 1537 1538 1539 1540 1540 1540 1541 1541 1541 1541 1541 1541 1541 1540 1539 1538 1538 1538 1538 1538 1537 1535 1534 1532 1530 1529 1528 1527 1525 1523 1522 1520 1519 1517 1515 1513 1511
1404 1410 1419 1430 1439 1443 1449 1454 1454 1456 1458 1457 1455 1452 1450 1452 1452 1451 1459 1468 1468 1465 1464 1467 1471 1476 1480 1486 1490 1495 1498 1499 1504 1510 1511 1512 1514 1516 1517 1520 1522 1525 1528 1530 1532 1533 1535 1537 1537 1538 1539 1539 1540 1540 1541 1542 1542 1541 1541 1542 1542 1542 1541 1540 1540 1540 1540 1540 1539 1538 1537 1536 1534 1532 1531 1529 1527 1526 1525 1523 1522 1520 1518 1516 1514 1512
1403 1407 1411 1423 1439 1447 1451 1457 1460 1457 1454 1452 1451 1448 1447 1451 1452 1451 1458 1470 1472 1468 1467 1468 1472 1476 1480 1484 1490 1494 1497 1501 1508 1513 1513 1514 1515 1517 1519 1522 1523 1526 1528 1530 1532 1534 1535 1537 1538 1539 1540 1540 1540 1541 1542 1542 1542 1542 1542 1542 1543 1543 1542 1541 1541 1542 1542 1541 1541 1540 1539 1537 1535 1533 1532 1530 1529 1528 1526 1525 1523 1521 1520 1518 1515 1513
1407 1410 1411 1420 1437 1443 1441 1446 1453 1453 1449 1446 1445 1445 1446 1449 1449 1449 1458 1471 1474 1472 1470 1470 1473 1477 1479 1481 1486 1489 1494 1502 1510 1512 1512 1513 1515 1517 1519 1522 1524 1527 1529 1531 1533 1534 1535 1537 1538 1539 1540 1541 1541 1542 1543 1543 1543 1542 1542 1543 1543 1543 1543 1542 1543 1543 1543 1543 1542 1542 1540 1539 1537 1535 1533 1532 1531 1530 1528 1527 1525 1523 1521 1519 1517 1515
1414 1416 1418 1425 1435 1439 1439 1446 1451 1449 1447 1445 1443 1445 1447 1446 1449 1455 1460 1464 1468 1471 1472 1471 1473 1476 1479 1481 1484 1486 1489 1495 1501 1507 1510 1512 1515 1518 1520 1522 1525 1527 1529 1532 1533 1534 1536 1537 1538 1540 1541 1541 1542 1543 1543 1543 1543 1543 1543 1544 1544 1544 1543 1543 1544 1544 1545 1545 1544 1543 1542 1540 1539 1537 1535 1534 1533 1532 1531 1529 1527 1525 1523 1521 1519 1517
1423 1423 1427 1431 1435 1438 1441 1447 1451 1449 1446 1444 1443 1445 1446 1447 1454 1460 1456 1453 1459 1468 1471 1472 1474 1476 1478 1482 1485 1488 1490 1492 1495 1502 1509 1512 1514 1518 1522 1524 1526 1528 1530 1532 1534 1535 1536 1538 1539 1540 1541 1542 1543 1543 1544 1544 1544 1544 1545 1545 1544 1544 1544 1545 1546 1546 1546 1546 1545 1544 1543 1542 1540 1539 1538 1537 1536 1534 1532 1531 1529 1527 1524 1522 1520 1518
1428 1431 1434 1435 1437 1440 1443 1446 1451 1450 1445 1442 1443 1444 1445 1449 1455 1454 1449 1448 1455 1463 1469 1473 1475 1477 1479 1482 1485 1489 1494 1497 1500 1504 1508 1511 1514 1518 1522 1524 1526 1529 1531 1533 1534 1536 1537 1538 1540 1541 1542 1543 1544 1544 1544 1544 1544 1545 1545 1545 1545 1546 1546 1547 1548 1548 1548 1547 1547 1546 1544 1543 1542 1541 1540 1539 1538 1536 1534 1532 1531 1528 1526 1524 1521 1519
1430 1433 1438 1439 1439 1442 1446 1448 1450 1448 1442 1439 1442 1444 1445 1447 1448 1447 1448 1453 1457 1460 1467 1473 1476 1478 1480 1482 1486 1490 1495 1500 1503 1506 1509 1512 1515 1518 1522 1524 1526 1529 1531 1533 1535 1537 1537 1539 1540 1541 1542 1544 1544 1545 1545 1545 1545 1546 1546 1546 1547 1547 1548 1548 1549 1550 1549 1548 1547 1546 1545 1544 1544 1543 1542 1541 1540 1538 1536 1534 1532 1530 1527 1525 1523 1520
1432 1433 1437 1440 1440 1440 1443 1445 1445 1442 1440 1439 1440 1442 1443 1443 1444 1444 1447 1454 1459 1463 1467 1472 1476 1479 1481 1482 1486 1491 1496 1500 1504 1507 1509 1513 1516 1519 1522 1525 1527 1529 1531 1533 1535 1537 1538 1539 1541 1542 1544 1545 1545 1546 1546 1546 1546 1547 1547 1547 1548 1548 1549 1550 1551 1551 1550 1549 1548 1547 1546 1546 1545 1545 1544 1543 1541 1540 1537 1536 1534 1531 1529 1526 1524 1521
1431 1431 1433 1438 1442 1441 1440 1442 1443 1441 1440 1439 1439 1440 1441 1442 1444 1445 1446 1450 1457 1463 1466 1471 1475 1478 1481 1483 1487 1491 1496 1500 1504 1507 1510 1513 1517 1520 1523 1526 1528 1529 1531 1534 1536 1538 1539 1540 1541 1543 1544 1546 1546 1547 1547 1548 1548 1547 1547 1548 1549 1550 1550 1551 1551 1551 1550 1549 1549 1548 1548 1548 1547 1546 1545 1544 1543 1541 1539 1537 1535 1533 1531 1528 1526 1523
1432 1432 1432 1437 1442 1442 1442 1444 1445 1443 1442 1441 1440 1442 1443 1443 1446 1448 1449 1452 1457 1462 1466 1470 1474 1477 1480 1483 1486 1492 1497 1500 1504 1508 1511 1514 1517 1520 1523 1526 1528 1530 1532 1534 1536 1538 1540 1541 1542 1543 1544 1546 1547 1548 1549 1549 1549 1549 1549 1549 1550 1551 1551 1552 1552 1551 1551 1550 1550 1550 1550 1549 1549 1548 1547 1546 1545 1543 1541 1539 1538 1535 1533 1531 1528 1525
1433 1433 1434 1437 1440 1443 1446 1449 1447 1445 1446 1445 1443 1445 1446 1447 1449 1450 1452 1456 1460 1464 1468 1471 1475 1479 1482 1484 1487 1492 1497 1500 1503 1508 1512 1515 1518 1521 1523 1526 1528 1531 1533 1535 1537 1539 1541 1542 1543 1544 1545 1547 1548 1549 1550 1550 1550 1550 1550 1551 1552 1552 1552 1552 1552 1552 1551 1551 1551 1552 1552 1551 1550 1549 1549 1547 1546 1545 1543 1541 1539 1538 1535 1533 1530 1528
1434 1433 1436 1439 1441 1444 1449 1451 1449 1448 1449 1448 1446 1448 1449 1450 1453 1454 1456 1459 1463 1467 1471 1474 1477 1480 1483 1486 1489 1492 1498 1502 1504 1507 1512 1516 1518 1521 1524 1526 1529 1531 1534 1536 1538 1540 1541 1542 1543 1545 1546 1547 1549 1550 1550 1551 1551 1552 1552 1552 1553 1553 1553 1553 1552 1552 1552 1553 1553 1553 1553 1552 1552 1551 1550 1549 1548 1546 1545 1543 1541 1539 1537 1535 1533 1530
1433 1435 1437 1441 1445 1448 1450 1451 1449 1450 1453 1453 1451 1451 1452 1453 1455 1457 1460 1463 1466 1469 1473 1476 1479 1482 1485 1488 1491 1492 1497 1503 1505 1508 1512 1515 1518 1521 1524 1527 1529 1532 1534 1536 1538 1540 1542 1543 1544 1546 1547 1548 1549 1550 1551 1551 1552 1552 1553 1553 1554 1553 1553 1553 1553 1553 1553 1554 1554 1554 1554 1554 1553 1552 1551 1550 1549 1548 1546 1544 1543 1541 1539 1537 1535 1533
1434 1437 1438 1441 1446 1448 1448 1448 1446 1447 1453 1456 1454 1453 1455 1456 1457 1459 1462 1465 1468 1470 1473 1476 1480 1484 1487 1491 1493 1494 1497 1502 1507 1510 1513 1515 1519 1522 1524 1527 1530 1532 1535 1537 1539 1541 1543 1544 1545 1547 1548 1549 1550 1551 1552 1552 1553 1554 1554 1554 1554 1554 1554 1554 1554 1554 1555 1555 1555 1555 1555 1554 1554 1553 1552 1551 1550 1549 1548 1546 1544 1543 1541 1540 1538 1535
1433 1435 1435 1437 1441 1442 1443 1444 1444 1445 1451 1456 1456 1456 1457 1458 1459 1461 1464 1466 1469 1472 1474 1476 1480 1484 1488 1493 1496 1497 1498 1502 1507 1510 1513 1517 1520 1523 1525 1528 1530 1532 1535 1537 1539 1541 1543 1545 1546 1547 1548 1549 1551 1552 1552 1553 1554 1554 1554 1554 1554 1554 1554 1555 1555 1555 1556 1556 1556 1555 1555 1555 1555 1554 1553 1552 1551 1550 1549 1548 1546 1545 1543 1542 1540 1538